Weather History for LEVT - October, 2013

Change the Weather History Date:

Sunday, October 27, 2013

  Actual Average Record
Temperature  
Mean Temperature 58 °F -  
Max Temperature 66 °F 54 °F 75 °F (2002)
Min Temperature 51 °F 39 °F 28 °F (2010)
Degree Days  
Heating Degree Days 6    
Growing Degree Days 8 (Base 50)    
Moisture  
Dew Point 46 °F    
Average Humidity 64    
Maximum Humidity 82    
Minimum Humidity 46    
Precipitation  
Precipitation 0.00 in - - ()
Sea Level Pressure  
Sea Level Pressure 30.17 in    
Wind  
Wind Speed 7 mph ()    
Max Wind Speed 20 mph    
Max Gust Speed -    
Visibility 6.2 miles    
Events      
Averages and records for this station are not official NWS values.
T = Trace of Precipitation, MM = Missing Value Source: Averaged Metar Reports

Daily Weather History Graph

Daily Weather History Graph

Search for Another Location

Airport or City:

Trip Planner

Search our weather history database for the weather conditions in past years. The results will help you decide how hot, cold, wet, or windy it might be!

Date:

Astronomy

Oct. 27, 2013 Rise Set
Actual Time 7:38 AM CET 6:09 PM CET
Civil Twilight 7:09 AM CET 6:39 PM CET
Nautical Twilight 6:36 AM CET 7:12 PM CET
Astronomical Twilight 6:03 AM CET 7:45 PM CET
Moon 12:12 AM CEST (10/27) 2:20 PM CET (10/27)
Length of Visible Light 11h 29m
Length of Day
10h 31m
Last Quarter, 45% of the Moon is Illuminated
Oct 27
Last Quarter
Nov 3
New
Nov 10
First Quarter
Nov 17
Full
Nov 25
Last Quarter

Hourly Weather History & Observations

Time (CET) Temp. Dew Point Humidity Pressure Visibility Wind Dir Wind Speed Gust Speed Precip Events Conditions
12:00 AM 53.6 °F 46.4 °F 77% 30.12 in - Calm Calm - N/A   Clear
12:30 AM 55.4 °F 46.4 °F 72% 30.12 in - Calm Calm - N/A   Clear
1:00 AM 53.6 °F 46.4 °F 77% 30.15 in - Variable 1.2 mph - N/A   Clear
1:30 AM 55.4 °F 46.4 °F 72% 30.15 in - ESE 2.3 mph - N/A   Clear
2:00 AM 55.4 °F 46.4 °F 72% 30.15 in - West 4.6 mph - N/A   Clear
2:30 AM 55.4 °F 46.4 °F 72% 30.15 in - West 8.1 mph - N/A   Clear
2:00 AM 57.2 °F 46.4 °F 67% 30.15 in - SSW 4.6 mph - N/A   Clear
2:30 AM 55.4 °F 46.4 °F 72% 30.15 in - Variable 2.3 mph - N/A   Clear
3:00 AM 55.4 °F 46.4 °F 72% 30.15 in - SW 4.6 mph - N/A   Clear
3:30 AM 53.6 °F 46.4 °F 77% 30.15 in - SW 9.2 mph - N/A   Clear
4:00 AM 55.4 °F 46.4 °F 72% 30.15 in - WSW 8.1 mph - N/A   Clear
4:30 AM 55.4 °F 46.4 °F 72% 30.15 in - SW 3.5 mph - N/A   Clear
5:00 AM 55.4 °F 46.4 °F 72% 30.15 in - WSW 4.6 mph - N/A   Clear
5:30 AM 55.4 °F 46.4 °F 72% 30.15 in - WSW 11.5 mph - N/A   Clear
6:00 AM 53.6 °F 46.4 °F 77% 30.18 in - SW 9.2 mph - N/A   Clear
6:30 AM 51.8 °F 46.4 °F 82% 30.18 in - SW 11.5 mph - N/A   Clear
7:00 AM 55.4 °F 46.4 °F 72% 30.18 in - SW 11.5 mph - N/A   Clear
7:30 AM 53.6 °F 46.4 °F 77% 30.21 in 6.2 mi SW 16.1 mph - N/A   Partly Cloudy
8:00 AM 53.6 °F 46.4 °F 77% 30.21 in 6.2 mi SW 18.4 mph - N/A   Partly Cloudy
8:30 AM 55.4 °F 46.4 °F 72% 30.21 in 6.2 mi SW 17.3 mph - N/A   Partly Cloudy
9:00 AM 57.2 °F 46.4 °F 67% 30.21 in - SW 11.5 mph - N/A   Clear
9:30 AM 57.2 °F 48.2 °F 72% 30.24 in - SW 11.5 mph - N/A   Clear
10:00 AM 60.8 °F 46.4 °F 59% 30.24 in - SSW 11.5 mph - N/A   Clear
10:30 AM 60.8 °F 46.4 °F 59% 30.21 in - SW 19.6 mph - N/A   Clear
11:00 AM 62.6 °F 44.6 °F 52% 30.24 in - SW 19.6 mph - N/A   Clear
11:30 AM 64.4 °F 44.6 °F 49% 30.21 in - SW 18.4 mph - N/A   Clear
12:00 PM 64.4 °F 44.6 °F 49% 30.21 in - SW 18.4 mph - N/A   Clear
12:30 PM 64.4 °F 44.6 °F 49% 30.21 in - SSW 15.0 mph - N/A   Clear
1:00 PM 64.4 °F 44.6 °F 49% 30.21 in - WSW 12.7 mph - N/A   Clear
1:30 PM 64.4 °F 44.6 °F 49% 30.21 in - WSW 15.0 mph - N/A   Clear
2:00 PM 64.4 °F 44.6 °F 49% 30.21 in - SW 13.8 mph - N/A   Clear
2:30 PM 66.2 °F 46.4 °F 49% 30.21 in - WSW 8.1 mph - N/A   Clear
3:00 PM 66.2 °F 44.6 °F 46% 30.18 in - SW 10.4 mph - N/A   Clear
3:30 PM 64.4 °F 46.4 °F 52% 30.18 in - SSW 13.8 mph - N/A   Clear
4:00 PM 64.4 °F 48.2 °F 56% 30.18 in - SSW 13.8 mph - N/A   Clear
4:30 PM 66.2 °F 48.2 °F 52% 30.18 in - SSW 13.8 mph - N/A   Clear
5:00 PM 64.4 °F 48.2 °F 56% 30.15 in - SSW 11.5 mph - N/A   Clear
5:30 PM 64.4 °F 48.2 °F 56% 30.15 in - SSW 8.1 mph - N/A   Clear
6:00 PM 62.6 °F 46.4 °F 55% 30.15 in - South 10.4 mph - N/A   Clear
6:30 PM 60.8 °F 46.4 °F 59% 30.15 in - South 3.5 mph - N/A   Clear
7:00 PM 59.0 °F 46.4 °F 63% 30.15 in - South 3.5 mph - N/A   Clear
7:30 PM 60.8 °F 46.4 °F 59% 30.15 in - SSE 4.6 mph - N/A   Clear
8:00 PM 59.0 °F 46.4 °F 63% 30.12 in - SSW 4.6 mph - N/A   Clear
8:30 PM 57.2 °F 46.4 °F 67% 30.12 in - Variable 1.2 mph - N/A   Clear
9:00 PM 57.2 °F 46.4 °F 67% 30.12 in - SSW 6.9 mph - N/A   Clear
9:30 PM 57.2 °F 46.4 °F 67% 30.12 in - SSW 6.9 mph - N/A   Clear
10:00 PM 57.2 °F 46.4 °F 67% 30.12 in - SSW 8.1 mph - N/A   Clear
10:30 PM 57.2 °F 46.4 °F 67% 30.12 in - South 3.5 mph - N/A   Clear